Regional Weather Roundup
Issued by NWS

Home | Current Version | Previous Version | Text Only | Print | Product List | Glossary On
Versions: 1 2 3 4 5 6 7 8 9 10 11 12 13 14 15 16 17 18 19 20 21 22 23 24 25 26 27 28 29 30 31 32 33 34 35 36 37 38 39 40 41 42 43 44 45 46 47 48 49 50
000
ASUS46 KLOX 221713
RWRCA

SOUTHERN CALIFORNIA WEATHER ROUNDUP
NATIONAL WEATHER SERVICE OXNARD CALIFORNIA
1000 AM PDT SAT JUL 22 2017

NOTE: "FAIR" INDICATES FEW OR NO CLOUDS BELOW 12,000 FEET WITH NO
SIGNIFICANT WEATHER AND/OR OBSTRUCTIONS TO VISIBILITY.

  -  STATIONS PRECEEDED BY AN ASTERISK (*) ARE NOT NWS OR FAA
     STATIONS AND ARE NOT SUBJECT TO NWS AND FAA QUALITY CONTROL.

CAZ041-042-087-221800-
LA AND ORANGE COUNTY COASTAL AREAS


CITY           SKY/WX    TMP DP  RH WIND       PRES   REMARKS
L.A. DOWNTOWN  SUNNY     79  65  62 CALM      29.91F
L.A. AIRPORT   MOSUNNY   75  65  70 W10       29.92F
LONG BEACH     SUNNY     76  64  66 MISG      29.92F

CITY           SKY/WX    TMP DP  RH WIND       PRES   REMARKS
AVALON           N/A     68 N/A N/A N3          N/A
FULLERTON      SUNNY     76  65  68 VRB3      29.91F
*GETTY CENTER    N/A     73  63  68 S3          N/A
HAWTHORNE      SUNNY     76  63  64 E3        29.92F
*LEO CARRILLO    N/A     73  64  73 SE5         N/A
*LOS ALAMITOS  MOSUNNY   75  64  68 CALM      29.92F
*REDONDO BEACH   N/A     75  64  68 SW3       29.92S
SANTA ANA      MOSUNNY   75  64  68 VRB5      29.92F
STA MONICA APT SUNNY     75  65  70 SW8       29.93F
TORRANCE       SUNNY     75  63  64 VRB6      29.93S
*UCLA            N/A     75  61  60 CALM      29.90F

$$

CAZ547-548-048-221800-
LA COUNTY VALLEYS AND INLAND EMPIRE


CITY           SKY/WX    TMP DP  RH WIND       PRES   REMARKS
BURBANK        SUNNY     76  60  57 VRB5      29.93F
VAN NUYS       SUNNY     78  61  55 VRB3      29.93F

CITY           SKY/WX    TMP DP  RH WIND       PRES   REMARKS
CORONA AIRPORT SUNNY     77  65  66 NW5       29.93F
*CHATSWORTH      N/A     80  61  50 CALM      29.89S
CHINO          SUNNY     81  63  54 CALM      29.94F HAZE
*CLAREMONT       N/A     78  62  57 S3          N/A
MARCH AFB      SUNNY     82  60  47 CALM      29.94F
*NORTHRIDGE      N/A     79  55  44 SE2         N/A
ONTARIO        SUNNY     78  62  57 N3        29.93F
*PASADENA        N/A     81  66  61 E1          N/A
POMONA         SUNNY     75  63  64 W6        29.96F
RIVERSIDE      SUNNY     78  64  61 NW6       29.93F
SAN BERNARDINO SUNNY     81  59  47 SW3       29.94S HAZE
*SAN RAFAEL HI   N/A     79  63  57 CALM        N/A
*SAUGUS          N/A     80  54  39 SW2         N/A
*WHITEMAN AP   NOT AVBL
*WHITTIER HILL   N/A     77  65  67 SW5         N/A
*WOODLAND HILL   N/A     79  59  50 N3          N/A

$$

CAZ054-055-221800-
LA AND SAN BERNARDINO COUNTY MOUNTAINS


CITY           SKY/WX    TMP DP  RH WIND       PRES   REMARKS
*ACTON           N/A     88  35  15 W2          N/A
*BIG BEAR AIRP SUNNY     73  37  27 W3        30.29S
*BIG PINES       N/A     78  30  17 SW2         N/A
*CHILAO          N/A     82   8   6 SE13        N/A
SANDBERG       SUNNY     85  32  15 VRB3      30.14S
*WARM SPRINGS    N/A     85  42  21 CALM        N/A

$$

CAZ028-029-059-060-099-221800-
ANTELOPE VALLEY AND SURROUNDING AREAS


CITY           SKY/WX    TMP DP  RH WIND       PRES   REMARKS
LANCASTER      SUNNY     89  35  14 CALM      29.99F
PALMDALE       SUNNY     87  36  16 N6        30.01S
*POPPY PARK      N/A     90  34  14 SE2         N/A

CITY           SKY/WX    TMP DP  RH WIND       PRES   REMARKS
29 PALMS       SUNNY     94  38  14 CALM      30.01F
BARSTOW/DAGGET SUNNY     91  33  12 W14       29.94F
BISHOP         SUNNY     87  35  15 CALM      30.10F
CHINA LAKE     SUNNY     89  40  17 SE5       29.97F
EDWARDS AFB    SUNNY     83  33  16 W1        29.98S
MOJAVE         SUNNY     86  36  16 VRB5      30.02S
NEEDLES        SUNNY    103  54  19 CALM      29.86S HX 101
VICTORVILLE    SUNNY     86  28  12 CALM      30.02F

$$

CAZ039-040-221800-
VENTURA AND SANTA BARBARA COUNTY COAST


CITY           SKY/WX    TMP DP  RH WIND       PRES   REMARKS
CAMARILLO      SUNNY     73  62  68 W6        29.93S
OXNARD AIRPORT CLOUDY    71  63  75 W8        29.94R
*POINT MUGU    MOSUNNY   71  63  75 S7        29.94R
SBA APT/GOLETA PTSUNNY   67  63  87 S8        29.94S
*SANTA BARBARA   N/A     69  61  76 CALM      30.02R
*VENTURA         N/A     73  64  74 SW6       29.91S

$$

CAZ044-045-221800-
VENTURA COUNTY VALLEYS


CITY           SKY/WX    TMP DP  RH WIND       PRES   REMARKS
*SIMI VALLEY     N/A     77  60  56 SW2       29.87S
*WESTLAKE VILL   N/A     76  61  57 CALM      29.89F
*OJAI            N/A     81  59  46 W2        29.86S

$$

CAZ053-221800-
VENTURA COUNTY MOUNTAINS


CITY           SKY/WX    TMP DP  RH WIND       PRES   REMARKS
*LOCKWOOD VLY    N/A     82  30  15 MISG        N/A
*FRAZIER MTN     N/A     67   9  10 S3        29.87S
*ROSE VALLEY     N/A     88  39  18 MISG        N/A

$$

CAZ034-035-036-221800-
CENTRAL COAST AND SANTA YNEZ VALLEY


CITY           SKY/WX    TMP DP  RH WIND       PRES   REMARKS
SAN LUIS OBISP MOSUNNY   60  54  80 CALM      29.96F
SANTA MARIA    MOSUNNY   62  55  77 VRB5      29.97S

CITY           SKY/WX    TMP DP  RH WIND       PRES   REMARKS
*CAL POLY SLO    N/A     61  57  88 S3          N/A
*LOMPOC        CLOUDY    57  54  89 W9        29.98S
*PISMO BEACH     N/A     58  56  92 CALM      29.98R
*SANTA YNEZ    FAIR      59  54  82 CALM      29.96F

$$

CAZ037-038-051-221800-
SAN LUIS OBISPO COUNTY INTERIOR AND CUYAMA VALLEY


CITY           SKY/WX    TMP DP  RH WIND       PRES   REMARKS
*CUYAMA          N/A     81  48  30 SE3       29.85F
PASO ROBLES    SUNNY     71  50  47 CALM      29.95F

$$

CAZ032-033-061-221800-
SOUTHERN DESERTS


CITY           SKY/WX    TMP DP  RH WIND       PRES   REMARKS
BLYTHE         SUNNY     99  57  24 SE13      29.84S HX  98
IMPERIAL       SUNNY     94  71  47 VRB3      29.81S HX 101
PALM SPRINGS   SUNNY     97  49  19 VRB5      29.87S HX  94
THERMAL        SUNNY     96  63  33 S6        29.80F HX  97

$$

ELSEWHERE ACROSS THE WESTERN UNITED STATES AND MEXICO


CITY           SKY/WX    TMP DP  RH WIND       PRES   REMARKS
DENVER, CO     PTSUNNY   81  50  33 NW8       30.22S
GRAND CANYON,  SUNNY     80  53  39 VRB6      30.30S
HONOLULU, HI   MOSUNNY   79  66  65 E8        29.97R
KAHULUI, MAUI  MOSUNNY   79  70  73 NE12      29.97R
LAKE TAHOE, CA SUNNY     71  47  42 NE5       30.26S
LAS VEGAS, NV  MOSUNNY   97  47  18 CALM      29.95R HX  93
MAMMOTH LAKES, FAIR      75  35  23 SE3       30.34S
MEXICO CITY, M PTSUNNY   68  52  56 E7        30.37F
PHOENIX, AZ    MOSUNNY   94  67  41 S6        29.90S HX  97
PORTLAND, OR   MOSUNNY   72  57  59 NW6       30.17F
RENO, NV       SUNNY     77  39  25 VRB3      30.16F
SALT LAKE CITY MOSUNNY   88  51  28 CALM      30.12S
SAN DIEGO, CA  PTSUNNY   72  64  76 S7        29.95R
SAN FRANCISCO, SUNNY     65  56  72 NE6       29.94S
SAN JOSE, CA   SUNNY     72  53  51 CALM      29.93F
SEATTLE, WA    PTSUNNY   70  54  56 S7        30.20F
TIJUANA, MEX   SUNNY     73  64  73 SW6       29.96R

$$

STATION/POSITION TIME  TEMP    WIND        PRES    VSBY  WAVE
                       AIR SEA DIR/SP/G                  HT/PER
                 (UTC) (F)     (DEG/KT/KT) (MB)    (MI)  (FT/S)
POINT ARGUELLO B NOT AVBL
WEST SANTA BARBA 1650   56 57  310/ 17/ 21 1014.0S         6/ 8
POINT CONCEPTION NOT AVBL
EAST SANTA BARBA 1650   63 66  160/  4/  4 1014.9R         3/ 6
SANTA MONICA BAY 1700      71  100/  4/  8 1013.5



USA.gov is the U.S. government's official web portal to all federal, state and local government web resources and services.